This demonstration page uses our WeatherBlox Daily Observations layout. Learn more.

Left ArrowRight Arrow

41.12389, -100.76542

Hourly Observations for July 4, 2015

Temp ( °F °C ) Dew Point ( °F °C ) Humidity (%) Winds ( mph kmh ) Pressure ( in mb ) Visibility ( mi km ) Precip ( " mm )
12:53 am 00:53 Clear 67 19.4 60 15.6 79 79 SSE 6 9 29.95 1014 10 16 0.00 0.00
1:53 am 01:53 Clear 66 18.9 59 15 78 78 SSE 7 11 29.94 1014 10 16 0.00 0.00
2:53 am 02:53 Clear 66 18.9 59 15 78 78 SE 5 7 29.93 1014 10 16 0.00 0.00
3:53 am 03:53 Clear 66 18.9 59 15 78 78 SSE 9 15 29.93 1013 10 16 0.00 0.00
4:53 am 04:53 Mostly Clear 66 18.9 59 15 78 78 SSE 8 13 29.91 1013 10 16 0.00 0.00
5:53 am 05:53 Mostly Clear 63 17.2 59 15 87 87 E 6 9 29.91 1013 10 16 0.00 0.00
6:53 am 06:53 Sunny 63 17.2 59 15 87 87 E 6 9 29.92 1013 10 16 0.00 0.00
7:53 am 07:53 Sunny 64 17.8 60 15.6 87 87 E 8 13 29.89 1012 10 16 0.00 0.00
8:53 am 08:53 Sunny 70 21.1 61 16.1 73 73 ESE 7 11 29.90 1012 10 16 0.00 0.00
9:53 am 09:53 Sunny 76 24.4 61 16.1 60 60 SSW 10 17 29.89 1012 10 16 0.00 0.00
10:53 am 10:53 Sunny 80 26.7 62 16.7 54 54 SSE 13 20 29.86 1011 10 16 0.00 0.00
11:53 am 11:53 Sunny 83 28.3 63 17.2 51 51 SSE 9 15 29.85 1011 10 16 0.00 0.00
12:53 pm 12:53 Sunny 85 29.4 64 17.8 50 50 SSE 13 20 29.84 1011 10 16 0.00 0.00
1:53 pm 13:53 Sunny 87 30.6 64 17.8 46 46 S 16 26 29.83 1010 10 16 0.00 0.00
2:53 pm 14:53 Mostly Sunny 89 31.7 64 17.8 43 43 S 15 24 29.81 1010 10 16 0.00 0.00
3:53 pm 15:53 Sunny 90 32.2 64 17.8 42 42 S 12 19 29.80 1009 10 16 0.00 0.00
4:53 pm 16:53 Sunny 91 32.8 64 17.8 41 41 SE 14 22 29.77 1008 10 16 0.00 0.00
5:53 pm 17:53 Sunny 91 32.8 63 17.2 39 39 SE 14 22 29.76 1008 10 16 0.00 0.00
6:53 pm 18:53 Sunny 89 31.7 62 16.7 41 41 SSE 12 19 29.75 1008 10 16 0.00 0.00
7:53 pm 19:53 Sunny 85 29.4 62 16.7 46 46 SE 9 15 29.75 1007 10 16 0.00 0.00
8:53 pm 20:53 Sunny 82 27.8 64 17.8 55 55 SE 12 19 29.75 1008 10 16 0.00 0.00
9:53 pm 21:53 Clear 79 26.1 64 17.8 60 60 SE 9 15 29.75 1007 10 16 0.00 0.00
10:53 pm 22:53 Clear 76 24.4 64 17.8 67 67 ESE 12 19 29.80 1009 10 16 0.00 0.00
11:53 pm 23:53 Clear 77 25 64 17.8 64 64 ESE 10 17 29.80 1009 10 16 0.00 0.00

Powered by AerisWeather